DW6169 Weather Reports


Display with metric or nautical units.
time (UTC)temp
F
wind
direction
speed
MPH
gust
MPH
rain 1hr
in
rain 24hr
in
rain mn
in
humidity
%
barometer
mb
20260905215603 87 28 1.0 7.0 0.02 0.10 0.09 71 1013.7
20260905215102 88 0 0.0 5.0 0.00 0.08 0.07 70 1013.5
20260905214606 88 0 1.0 8.0 0.00 0.08 0.07 70 1013.3
20260905214101 88 77 2.0 8.0 0.00 0.08 0.07 70 1013.1
20260905213603 89 186 0.0 8.0 0.00 0.08 0.07 69 1013.1
20260905213126 89 0 0.0 7.0 0.00 0.08 0.07 69 1013.2
20260905212602 89 84 0.0 7.0 0.00 0.08 0.07 68 1013.2
20260905212057 90 102 0.0 6.0 0.00 0.08 0.07 68 1013.1
20260905211603 90 184 0.0 6.0 0.00 0.08 0.07 67 1013.1
20260905211105 90 232 1.0 6.0 0.00 0.08 0.07 66 1012.8
20260905210602 91 103 1.0 7.0 0.00 0.08 0.07 66 1012.8
20260905210109 92 286 1.0 7.0 0.00 0.08 0.07 65 1012.8
20260905205601 93 252 1.0 6.0 0.00 0.09 0.07 65 1012.8
20260905205100 94 0 0.0 5.0 0.00 0.09 0.07 65 1012.9
20260905204602 95 189 0.0 7.0 0.00 0.09 0.07 64 1012.9
20260905204101 95 226 1.0 7.0 0.00 0.09 0.07 63 1013.0
20260905203600 95 196 1.0 7.0 0.00 0.09 0.07 64 1013.0
20260905203114 95 297 1.0 5.0 0.00 0.09 0.07 64 1012.9
20260905202601 95 175 1.0 5.0 0.00 0.09 0.07 64 1012.8
20260905202100 96 180 1.0 9.0 0.00 0.09 0.07 63 1012.9
20260905201604 96 236 2.0 9.0 0.00 0.09 0.07 63 1012.9
20260905201059 97 117 0.0 3.0 0.00 0.09 0.07 63 1012.8
20260905200601 96 143 1.0 3.0 0.00 0.09 0.07 62 1013.0
20260905200108 96 0 0.0 5.0 0.00 0.09 0.07 64 1013.2
20260905195558 96 130 0.0 5.0 0.00 0.09 0.07 65 1013.3
20260905195058 95 204 1.0 6.0 0.00 0.09 0.07 63 1013.3
20260905194608 96 120 1.0 8.0 0.00 0.09 0.07 62 1013.3
20260905194100 96 101 0.0 8.0 0.00 0.09 0.07 62 1013.2
20260905193558 96 312 0.0 6.0 0.00 0.09 0.07 63 1013.2
20260905193120 95 0 1.0 6.0 0.00 0.09 0.07 63 1013.1
20260905192602 95 136 0.0 3.0 0.00 0.09 0.07 64 1013.2
20260905192102 94 287 1.0 6.0 0.00 0.09 0.07 64 1013.2
20260905191620 93 0 1.0 7.0 0.00 0.09 0.07 66 1013.3
20260905191059 93 0 1.0 7.0 0.00 0.09 0.07 65 1013.4
20260905190601 93 0 1.0 4.0 0.00 0.09 0.07 66 1013.6
20260905190106 93 0 0.0 4.0 0.00 0.09 0.07 66 1013.6
20260905185602 93 243 0.0 3.0 0.00 0.09 0.07 65 1013.7
20260905185058 93 0 0.0 4.0 0.00 0.09 0.07 65 1013.6
20260905184616 93 0 1.0 4.0 0.00 0.09 0.07 65 1013.6
20260905184101 93 215 0.0 6.0 0.00 0.09 0.07 65 1013.6
20260905183603 93 0 1.0 7.0 0.00 0.09 0.07 67 1013.5
20260905183103 92 0 3.0 7.0 0.00 0.09 0.07 67 1013.6
20260905182601 92 0 0.0 7.0 0.00 0.09 0.07 66 1013.7
20260905182100 92 86 1.0 6.0 0.00 0.09 0.07 67 1013.9
20260905181610 90 275 0.0 4.0 0.00 0.09 0.07 69 1014.1
20260905181101 89 103 1.0 4.0 0.00 0.09 0.07 69 1014.1
20260905180600 88 250 0.0 0.0 0.00 0.09 0.07 71 1014.3
20260905180109 88 0 0.0 3.0 0.00 0.09 0.07 70 1014.2
20260905175600 87 0 0.0 3.0 0.00 0.09 0.07 70 1014.2
20260905175059 87 0 0.0 7.0 0.00 0.09 0.07 69 1014.3
20260905174606 87 0 0.0 8.0 0.00 0.09 0.07 69 1014.4
20260905174059 87 246 3.0 8.0 0.00 0.09 0.07 68 1014.4
20260905173558 88 0 0.0 7.0 0.00 0.09 0.07 68 1014.4
20260905173103 88 0 3.0 8.0 0.00 0.09 0.07 67 1014.4
20260905172603 89 0 2.0 11.0 0.00 0.09 0.07 66 1014.2
20260905172058 90 240 4.0 11.0 0.00 0.09 0.07 65 1014.3
20260905171636 91 315 1.0 7.0 0.00 0.09 0.07 64 1014.4
20260905171100 93 0 1.0 7.0 0.00 0.09 0.07 62 1014.6
20260905170559 94 234 1.0 7.0 0.00 0.09 0.07 63 1014.7
20260905170108 94 0 0.0 6.0 0.00 0.09 0.07 64 1014.8
20260905165604 94 0 1.0 6.0 0.00 0.09 0.07 64 1014.7
20260905165101 94 283 1.0 4.0 0.00 0.09 0.07 64 1014.7
20260905164606 94 0 0.0 4.0 0.00 0.09 0.07 65 1014.6
20260905164058 93 217 1.0 4.0 0.00 0.09 0.07 66 1014.7
20260905163600 93 0 0.0 3.0 0.00 0.09 0.07 66 1014.9
20260905163109 92 230 0.0 3.0 0.00 0.09 0.07 67 1015.1
20260905162559 92 265 0.0 3.0 0.00 0.09 0.07 66 1015.0
20260905162101 92 0 0.0 6.0 0.00 0.09 0.07 65 1015.1
20260905161605 93 0 0.0 6.0 0.00 0.09 0.07 64 1015.2
20260905161100 93 0 0.0 6.0 0.00 0.09 0.07 64 1015.4
20260905160601 93 0 0.0 6.0 0.00 0.09 0.07 65 1015.5
20260905160113 92 84 0.0 4.0 0.00 0.09 0.07 66 1015.5
20260905155558 92 239 1.0 4.0 0.00 0.09 0.07 66 1015.5
20260905155059 91 143 0.0 4.0 0.00 0.09 0.07 68 1015.6
20260905154643 90 0 0.0 4.0 0.00 0.09 0.07 69 1015.7
20260905154119 90 0 1.0 4.0 0.00 0.09 0.07 69 1015.5
20260905153557 90 0 0.0 3.0 0.00 0.09 0.07 71 1015.5
20260905153106 89 0 0.0 4.0 0.00 0.09 0.07 73 1015.7
20260905152558 88 0 0.0 4.0 0.00 0.09 0.07 75 1015.8
20260905152057 87 0 0.0 3.0 0.00 0.09 0.07 78 1015.6
20260905151609 87 0 0.0 0.0 0.00 0.09 0.07 80 1015.6
20260905151057 86 0 0.0 0.0 0.00 0.09 0.07 82 1015.7
20260905150557 85 0 0.0 0.0 0.00 0.09 0.07 85 1015.8
20260905150109 85 0 0.0 3.0 0.00 0.09 0.07 87 1015.7
20260905145559 84 0 0.0 3.0 0.00 0.09 0.07 88 1015.5
20260905145058 83 0 0.0 3.0 0.00 0.09 0.07 88 1015.4
20260905144609 82 0 0.0 2.0 0.00 0.09 0.07 89 1015.4
20260905144100 82 0 0.0 2.0 0.00 0.09 0.07 89 1015.6
20260905143557 82 0 0.0 0.0 0.00 0.09 0.07 89 1015.5
20260905143112 81 0 0.0 0.0 0.00 0.09 0.07 89 1015.6
20260905142600 81 0 0.0 0.0 0.00 0.09 0.07 90 1015.6
20260905142057 81 0 0.0 0.0 0.00 0.09 0.07 89 1015.5
20260905141606 80 0 0.0 0.0 0.00 0.09 0.07 89 1015.5
20260905141058 80 0 0.0 0.0 0.00 0.09 0.07 89 1015.5
20260905140558 79 0 0.0 0.0 0.00 0.09 0.07 89 1015.5
20260905140107 79 0 0.0 0.0 0.00 0.09 0.07 89 1015.6
20260905135559 79 0 0.0 0.0 0.00 0.78 0.07 89 1015.7
20260905135059 79 0 0.0 0.0 0.00 0.78 0.07 89 1015.7
20260905134608 79 0 0.0 0.0 0.00 0.78 0.07 89 1015.6
20260905134101 79 0 0.0 0.0 0.00 0.78 0.07 89 1015.6
20260905133559 79 0 0.0 0.0 0.00 0.78 0.07 89 1015.6
20260905133105 78 0 0.0 0.0 0.00 0.78 0.07 89 1015.8
20260905132557 78 0 0.0 0.0 0.00 0.78 0.07 89 1015.8
20260905132057 78 0 0.0 0.0 0.00 0.78 0.07 89 1015.9
20260905131606 78 0 0.0 0.0 0.00 0.78 0.07 89 1016.0
20260905131058 78 0 0.0 0.0 0.00 0.78 0.07 89 1016.0
20260905130601 78 0 0.0 0.0 0.00 0.78 0.07 89 1016.0
20260905130106 78 0 0.0 0.0 0.01 0.78 0.07 88 1016.1
20260905125600 78 0 0.0 0.0 0.07 0.78 0.07 88 1015.8
20260905125058 78 0 0.0 0.0 0.07 0.78 0.07 88 1015.9
20260905124601 78 0 0.0 0.0 0.07 0.78 0.07 88 1015.9
20260905124059 78 0 0.0 2.0 0.07 0.78 0.07 88 1016.0
20260905123558 78 0 0.0 2.0 0.07 0.78 0.07 88 1016.1
20260905123109 78 0 0.0 2.0 0.07 0.78 0.07 88 1016.0
20260905122558 78 0 0.0 3.0 0.07 0.78 0.07 88 1015.9
20260905122057 78 0 0.0 3.0 0.07 0.78 0.07 88 1015.9
20260905121607 78 250 0.0 3.0 0.07 0.78 0.07 88 1016.0
20260905121058 78 226 0.0 5.0 0.07 0.78 0.07 88 1015.9
20260905120557 78 0 1.0 5.0 0.07 0.78 0.07 88 1015.8
20260905120111 78 0 0.0 0.0 0.06 0.77 0.06 88 1015.6
20260905115559 78 0 0.0 0.0 0.00 0.71 0.00 88 1015.5
20260905115057 79 0 0.0 0.0 0.00 0.71 0.00 88 1015.3
20260905114610 79 0 0.0 0.0 0.00 0.71 0.00 88 1015.4
20260905114057 79 0 0.0 3.0 0.00 0.71 0.00 88 1015.4
20260905113556 78 0 0.0 3.0 0.00 0.71 0.00 88 1015.4
20260905113101 78 0 0.0 0.0 0.00 0.71 0.00 88 1015.4
20260905112558 78 0 0.0 0.0 0.00 0.71 0.00 88 1015.1
20260905112100 78 0 0.0 0.0 0.00 0.71 0.00 88 1015.1
20260905111628 78 0 0.0 0.0 0.00 0.71 0.00 88 1015.1
20260905111057 78 0 0.0 0.0 0.00 0.71 0.00 88 1015.0
20260905110557 78 0 0.0 0.0 0.00 0.71 0.00 88 1014.9
20260905110113 78 0 0.0 0.0 0.00 0.71 0.00 88 1014.8
20260905105557 78 0 0.0 0.0 0.00 0.71 0.00 88 1014.9
20260905105057 78 0 0.0 0.0 0.00 0.71 0.00 88 1014.9
20260905104619 78 0 0.0 0.0 0.00 0.71 0.00 88 1014.9
20260905104103 78 0 0.0 0.0 0.00 0.71 0.00 88 1014.8
20260905103556 78 0 0.0 0.0 0.00 0.71 0.00 88 1014.7
20260905103101 78 0 0.0 0.0 0.00 0.71 0.00 88 1014.6
20260905102559 78 0 0.0 0.0 0.00 0.71 0.00 88 1014.6
20260905102059 78 0 0.0 0.0 0.00 0.71 0.00 88 1014.6
20260905101601 78 0 0.0 0.0 0.00 0.71 0.00 88 1014.5
20260905101059 78 0 0.0 0.0 0.00 0.71 0.00 87 1014.5
20260905100557 78 0 0.0 0.0 0.00 0.71 0.00 87 1014.5
20260905100108 78 0 0.0 0.0 0.00 0.71 0.00 87 1014.5
20260905095558 78 0 0.0 0.0 0.00 0.71 0.00 87 1014.3
20260905095057 78 0 0.0 0.0 0.00 0.71 0.00 87 1014.4
20260905094718 78 0 0.0 0.0 0.00 0.71 0.00 87 1014.3
20260905094103 78 0 0.0 0.0 0.00 0.71 0.00 87 1014.3
20260905093558 78 0 0.0 0.0 0.00 0.71 0.00 87 1014.2
20260905093131 79 0 0.0 0.0 0.00 0.71 0.00 87 1014.1
20260905092557 79 0 0.0 0.0 0.00 0.71 0.00 87 1014.1
20260905092101 79 0 0.0 0.0 0.00 0.71 0.00 87 1014.1
20260905091607 79 0 0.0 0.0 0.00 0.71 0.00 87 1014.1
20260905091104 79 0 0.0 0.0 0.00 0.71 0.00 87 1014.2
20260905090601 79 0 0.0 0.0 0.00 0.71 0.00 87 1014.2
20260905090108 79 0 0.0 0.0 0.00 0.71 0.00 87 1014.1
20260905085601 79 0 0.0 0.0 0.00 0.71 0.00 87 1014.1
20260905085059 79 0 0.0 0.0 0.00 0.71 0.00 87 1014.2
20260905084609 79 0 0.0 0.0 0.00 0.71 0.00 87 1014.3
20260905084101 79 0 0.0 0.0 0.00 0.71 0.00 87 1014.2
20260905083558 79 0 0.0 0.0 0.00 0.71 0.00 87 1014.2
20260905083106 79 0 0.0 0.0 0.00 0.71 0.00 87 1014.3
20260905082601 79 0 0.0 0.0 0.00 0.71 0.00 87 1014.3
20260905082101 79 0 0.0 0.0 0.00 0.71 0.00 87 1014.2
20260905081612 79 0 0.0 0.0 0.00 0.71 0.00 87 1014.2
20260905081101 79 0 0.0 0.0 0.00 0.71 0.00 87 1014.3
20260905080600 79 0 0.0 0.0 0.00 0.71 0.00 87 1014.3
20260905080123 79 0 0.0 0.0 0.00 0.71 0.00 87 1014.4
20260905075604 79 0 0.0 0.0 0.00 0.71 0.00 87 1014.4
20260905075100 79 0 0.0 0.0 0.00 0.71 0.00 87 1014.4
20260905074608 79 0 0.0 0.0 0.00 0.71 0.00 87 1014.5
20260905074100 79 0 0.0 0.0 0.00 0.71 0.00 87 1014.4
20260905073601 79 0 0.0 0.0 0.00 0.71 0.00 87 1014.4
20260905073112 80 0 0.0 0.0 0.00 0.71 0.00 87 1014.5
20260905072600 80 0 0.0 0.0 0.00 0.71 0.00 87 1014.4
20260905072057 80 0 0.0 0.0 0.00 0.71 0.00 87 1014.4
20260905071604 80 0 0.0 0.0 0.00 0.71 0.00 87 1014.4
20260905071101 80 0 0.0 0.0 0.00 0.71 0.00 87 1014.5
20260905070558 80 0 0.0 0.0 0.00 0.71 0.00 87 1014.5
20260905070104 80 0 0.0 0.0 0.00 0.71 0.00 87 1014.6
20260905065602 80 0 0.0 0.0 0.00 0.71 0.00 87 1014.7
20260905065103 80 0 0.0 0.0 0.00 0.71 0.00 87 1014.6
20260905064612 80 0 0.0 0.0 0.00 0.71 0.00 87 1014.8
20260905064100 80 0 0.0 0.0 0.00 0.71 0.00 87 1014.9
20260905063601 80 0 0.0 0.0 0.00 0.71 0.00 88 1014.9
20260905063106 80 0 0.0 0.0 0.00 0.71 0.00 88 1015.0
20260905062558 80 0 0.0 0.0 0.00 0.71 0.00 88 1015.2
20260905062059 80 0 0.0 1.0 0.00 0.71 0.00 88 1015.2
20260905061607 80 0 0.0 2.0 0.00 0.71 0.00 88 1015.3
20260905061104 80 0 0.0 2.0 0.00 0.71 0.00 88 1015.4
20260905060557 80 111 0.0 1.0 0.00 0.71 0.00 88 1015.5
20260905060108 80 0 0.0 0.0 0.00 0.71 0.00 88 1015.4
20260905055557 80 0 0.0 0.0 0.00 0.71 0.00 88 1015.5
20260905055057 80 0 0.0 0.0 0.00 0.71 0.00 88 1015.5
20260905054608 80 0 0.0 0.0 0.00 0.71 0.00 88 1015.5
20260905054104 80 0 0.0 0.0 0.00 0.71 0.00 88 1015.6
20260905053600 80 0 0.0 0.0 0.00 0.71 0.00 88 1015.6
20260905053101 80 0 0.0 0.0 0.00 0.71 0.00 88 1015.7
20260905052558 80 0 0.0 0.0 0.00 0.71 0.00 88 1015.8
20260905052102 80 0 0.0 0.0 0.00 0.71 0.00 88 1015.7
20260905051611 79 0 0.0 0.0 0.00 0.71 0.00 88 1015.9
20260905051102 79 0 0.0 0.0 0.00 0.71 0.00 88 1015.9
20260905050557 79 0 0.0 0.0 0.00 0.71 0.00 88 1016.0
20260905050106 79 0 0.0 0.0 0.00 0.71 0.00 88 1015.9
20260905045558 79 0 0.0 0.0 0.00 0.71 0.00 88 1016.0
20260905045057 79 0 0.0 0.0 0.00 0.71 0.00 88 1016.0
20260905044601 79 0 0.0 0.0 0.00 0.71 0.00 87 1016.0
20260905044056 79 0 0.0 0.0 0.00 0.71 0.00 87 1015.9
20260905043556 79 0 0.0 0.0 0.00 0.71 0.00 87 1015.9
20260905043105 79 0 0.0 0.0 0.00 0.71 0.00 87 1015.9
20260905042558 79 0 0.0 0.0 0.00 0.71 0.00 87 1015.9
20260905042056 79 0 0.0 0.0 0.00 0.71 0.00 87 1015.9
20260905041610 79 0 0.0 0.0 0.00 0.71 0.00 87 1015.9
20260905041056 79 0 0.0 0.0 0.00 0.71 0.00 87 1015.9
20260905040559 79 0 0.0 0.0 0.00 0.71 0.00 87 1015.9
20260905040111 79 0 0.0 0.0 0.00 0.71 0.00 87 1016.0
20260905035556 80 0 0.0 0.0 0.00 0.71 0.71 87 1016.1
20260905035056 79 0 0.0 0.0 0.00 0.71 0.71 87 1016.1
20260905034607 79 0 0.0 0.0 0.00 0.71 0.71 87 1016.0
20260905034059 80 0 0.0 0.0 0.00 0.71 0.71 87 1016.0
20260905033558 80 0 0.0 0.0 0.00 0.71 0.71 87 1016.1
20260905033111 80 0 0.0 0.0 0.00 0.71 0.71 87 1016.3
20260905032558 80 0 0.0 0.0 0.00 0.71 0.71 87 1016.3
20260905032058 80 0 0.0 0.0 0.00 0.71 0.71 87 1016.4
20260905031621 80 0 0.0 0.0 0.00 0.71 0.71 86 1016.4
20260905031056 80 0 0.0 0.0 0.00 0.71 0.71 87 1016.3
20260905030556 80 0 0.0 0.0 0.00 0.71 0.71 86 1016.4
20260905030111 80 0 0.0 0.0 0.00 0.71 0.71 86 1016.5
20260905025556 80 0 0.0 0.0 0.00 0.71 0.71 86 1016.4
20260905025059 80 0 0.0 0.0 0.00 0.71 0.71 86 1016.3
20260905024613 80 0 0.0 0.0 0.00 0.71 0.71 86 1016.5
20260905024059 80 0 0.0 0.0 0.00 0.71 0.71 86 1016.6
20260905023557 80 0 0.0 0.0 0.00 0.71 0.71 86 1016.4
20260905023102 80 0 0.0 0.0 0.00 0.71 0.71 86 1016.5
20260905022558 80 0 0.0 0.0 0.00 0.71 0.71 86 1016.5
20260905022058 80 0 0.0 0.0 0.00 0.71 0.71 86 1016.5
20260905021613 80 0 0.0 0.0 0.00 0.71 0.71 86 1016.4
20260905021058 80 0 0.0 0.0 0.00 0.71 0.71 86 1016.4
20260905020558 80 0 0.0 0.0 0.00 0.71 0.71 86 1016.4
20260905020111 80 0 0.0 0.0 0.00 0.71 0.71 86 1016.4
20260905015557 80 0 0.0 0.0 0.00 0.71 0.71 86 1016.3
20260905015058 80 0 0.0 0.0 0.00 0.71 0.71 86 1016.3
20260905014602 80 0 0.0 0.0 0.00 0.71 0.71 85 1016.3
20260905014056 80 0 0.0 0.0 0.00 0.71 0.71 85 1016.3
20260905013601 80 0 0.0 0.0 0.00 0.71 0.71 85 1016.3
20260905013121 80 0 0.0 0.0 0.00 0.71 0.71 85 1016.3
20260905012556 80 0 0.0 0.0 0.00 0.71 0.71 85 1016.3
20260905012056 80 0 0.0 0.0 0.00 0.71 0.71 85 1016.2
20260905011613 80 0 0.0 0.0 0.00 0.71 0.71 85 1016.2
20260905011056 81 0 0.0 0.0 0.00 0.71 0.71 85 1016.0
20260905010558 81 0 0.0 0.0 0.00 0.71 0.71 85 1016.1
20260905010109 81 0 0.0 0.0 0.00 0.71 0.71 85 1016.0
20260905005557 81 0 0.0 0.0 0.00 0.71 0.71 85 1015.9
20260905005058 81 0 0.0 0.0 0.00 0.71 0.71 85 1015.9
20260905004602 81 0 0.0 0.0 0.00 0.71 0.71 85 1015.9
20260905004058 81 0 0.0 0.0 0.00 0.71 0.71 84 1015.7
20260905003558 81 0 0.0 0.0 0.00 0.71 0.71 84 1015.6
20260905003107 81 0 0.0 0.0 0.00 0.71 0.71 84 1015.6
20260905002556 81 0 0.0 0.0 0.00 0.71 0.71 84 1015.4
20260905002056 81 0 0.0 0.0 0.00 0.71 0.71 84 1015.3
20260905001605 81 0 0.0 0.0 0.00 0.71 0.71 84 1015.1
20260905001058 81 0 0.0 0.0 0.00 0.71 0.71 84 1015.0
20260905000604 81 0 0.0 0.0 0.00 0.71 0.71 84 1015.0
20260905000112 81 0 0.0 0.0 0.00 0.71 0.71 84 1015.0
20260904235558 81 0 0.0 0.0 0.00 0.71 0.71 84 1015.0
20260904235100 81 0 0.0 0.0 0.00 0.71 0.71 84 1015.0
20260904234608 81 0 0.0 0.0 0.00 0.71 0.71 84 1014.9
20260904234058 81 0 0.0 0.0 0.00 0.71 0.71 84 1014.9
20260904233557 81 0 0.0 0.0 0.00 0.71 0.71 84 1014.9
20260904233115 81 0 0.0 0.0 0.00 0.71 0.71 84 1014.9
20260904232557 82 0 0.0 0.0 0.00 0.71 0.71 84 1014.9
20260904232057 82 0 0.0 0.0 0.00 0.71 0.71 84 1014.9
20260904231610 82 0 0.0 0.0 0.00 0.71 0.71 83 1015.0
20260904231059 82 0 0.0 0.0 0.00 0.71 0.71 84 1015.0
20260904230558 82 0 0.0 0.0 0.00 0.71 0.71 83 1015.0
20260904230112 82 0 0.0 0.0 0.00 0.71 0.71 83 1015.0
20260904225558 82 0 0.0 0.0 0.00 0.71 0.71 83 1015.1
20260904225058 82 0 0.0 0.0 0.00 0.71 0.71 83 1015.2
20260904224622 82 0 0.0 0.0 0.00 0.71 0.71 83 1015.2
20260904224058 82 0 0.0 0.0 0.00 0.71 0.71 83 1015.2
20260904223557 82 0 0.0 0.0 0.00 0.71 0.71 83 1015.1
20260904223111 82 0 0.0 0.0 0.00 0.71 0.71 83 1015.1
20260904222558 82 0 0.0 0.0 0.00 0.71 0.71 83 1015.2
20260904222056 82 0 0.0 0.0 0.00 0.71 0.71 83 1015.3
20260904221628 82 0 0.0 0.0 0.00 0.71 0.71 83 1015.3
20260904221056 82 0 0.0 0.0 0.01 0.71 0.71 83 1015.4
20260904220557 82 0 0.0 0.0 0.01 0.71 0.71 83 1015.4
20260904220106 82 0 0.0 0.0 0.01 0.71 0.71 83 1015.5